SL-19 DEB, 23487

Orbit data source: Space-Track

SL-19 DEB, 23487 is space debris in LEO originally from a launch on Mon, 26 Dec 1994 UTC launched from the Tyuratam Missile And Space Complex (TTMTR). Debris objects in space refer to the collection of defunct objects orbiting the Earth. Examples of debris include non-operational satellites, rocket bodies, and fragments generated from explosions, collisions, or faulty payload assembly.

Loading next visibility...
Identifier
23487, 1994-085K
Orbit
LEO
Country
Flag of CISCIS
Related business
Manufacturer
Unknown
Mission
Spacecraft
Bus & Motor
Unknown
Mass
Unknown
Launch date (UTC)
1994-12-26 (31 years ago)
Launch vehicle
Unknown
Launch site
Tyuratam Missile And Space Complex (TTMTR)
Object type
Payload
Rocket body
Debris
Shape & HBR
Unknown
Radar Cross Section
Small (<0.1 m²)

Expand to show TLE details & history
Last TLE update: 8 hours ago

TLE from 8 hours ago
0 SL-19 DEB
1 23487U 94085K   25261.23861194 -.00000030  00000-0  34644-3 0  9998
2 23487  64.9436 359.6720 0178810 236.3118 214.6559 11.30407133268213
Epoch: 2025-09-18T05:43Z
TLE epoch observation values (Epoch: 2025-09-18T05:43:36.071Z)
Latitude
65.04304°
Longitude
5.95147°
Altitude
2,142.842 km
Speed
6.795 km/s
True Right ascension
05h 57m 01s
True Declination
64° 55' 58"
Sunlit
Object was in daylight at epoch
Visualization orbit readout
Latitude
Unknown
Longitude
Unknown
Altitude
Unknown
Speed
Unknown
Apparent Right ascension
Unknown
Apparent Declination
Unknown
Sunlit
N/A
Visualization observer readout
Local Sidereal Time
06:14:17
Azimuth
Unknown
Elevation
Unknown
Doppler factor
Unknown
Orbital elements
Apogee altitude
2,157.05 km
Perigee altitude
1,857.176 km
Semi-major axis
8,385.25 km
Eccentricity
0.01788
Inclination
64.9436°
RAAN
359.672°
Arg. of periapsis
236.3118°
True anomaly
213.51186°
Mean anomaly
214.6559°
Eccentric anomaly
214.08179°
Mean motion
2.82663 °/min
Orbital period
127.36 mins
BSTAR
0.00034644
Loading maneuver chart data...
Computing Atmospheric mass density...
Loading historical data...
Loading historical data...
Loading historical data...
Loading historical data...
Loading historical data...
Loading historical data...
Loading historical data...

Documentation

Showing up to 5 results
|